Wind_Speed
41 41 43 42 41 41 41 40 40 40 40 40 42 43 43 43 44 44 44 45 45 46 47 47 48 48 49 48 48 47 45 44 44 43 42 42 41 42
41 41 41 40 40 40 40 40 39 39 39 40 41 42 42 43 44 44 44 45 46 47 48 48 48 48 48 47 46 45 45 44 43 43 42 42 43 43
42 42 41 40 40 40 39 38 38 39 39 39 40 41 42 43 42 43 43 44 45 47 47 47 48 48 47 47 46 44 43 43 43 42 42 42 42 42
41 40 40 39 38 38 38 38 38 38 39 38 39 41 41 41 41 42 43 44 45 46 46 47 47 48 47 45 44 42 42 42 42 42 42 41 41 41
39 38 37 37 37 37 37 38 38 39 39 39 38 39 39 39 40 41 42 43 45 46 46 47 47 46 45 43 42 41 42 41 41 41 41 40 40 39
37 37 37 37 37 37 38 38 38 38 39 38 38 38 38 39 40 41 41 42 44 44 45 46 45 44 42 41 40 40 40 39 39 39 39 38 38 37
36 36 36 36 36 37 37 37 37 37 38 38 38 38 39 40 40 41 41 42 42 43 44 43 42 41 39 39 38 38 37 37 37 37 37 36 36 35
36 36 36 36 36 36 37 36 37 37 37 38 38 38 39 39 40 40 41 42 41 42 41 40 39 38 37 36 36 36 35 36 36 35 34 33 32 32
36 36 36 36 37 37 37 37 37 37 37 37 37 38 39 40 40 40 41 41 40 39 37 36 36 35 35 34 34 34 34 34 33 32 31 30 30 29
36 36 36 36 37 37 37 37 36 37 37 37 37 38 40 40 40 40 40 39 38 36 35 34 33 32 32 32 31 32 32 31 30 29 29 28 27 28
35 36 36 36 35 36 36 36 36 37 37 37 38 38 38 38 38 37 36 35 34 34 34 33 31 30 30 30 29 29 29 29 29 28 28 27 27 27
35 35 35 35 35 35 35 35 35 35 35 35 36 36 36 36 35 34 34 33 32 31 31 30 30 29 27 27 28 28 28 28 28 27 27 27 26 26
33 33 33 33 33 33 34 34 34 33 33 33 34 34 34 33 33 32 32 31 30 29 29 28 28 27 27 25 26 27 27 27 26 26 26 26 25 25
32 32 32 31 31 32 32 32 32 32 32 32 32 32 31 31 31 31 30 30 28 27 27 27 26 25 25 24 25 26 26 25 25 24 24 24 24 24
33 32 32 31 31 31 30 30 31 31 30 30 29 29 29 29 29 29 29 27 26 26 26 26 25 24 24 24 25 24 24 24 24 23 23 22 22 21
33 32 31 31 30 30 29 30 30 29 29 28 28 27 27 27 27 27 26 25 25 25 25 25 24 24 23 23 24 24 23 22 22 21 21 21 21 19
31 31 31 30 30 29 29 28 28 28 27 27 26 25 25 26 26 25 25 24 24 24 23 23 23 23 23 22 23 23 22 21 20 19 19 19 18 17
28 29 29 29 29 28 28 27 27 26 26 25 25 24 25 25 24 24 24 24 23 23 22 21 21 21 21 22 22 21 20 19 18 17 17 17 16 16
25 26 26 26 27 27 26 26 25 25 24 23 23 23 23 24 24 23 23 23 22 21 21 20 20 20 20 20 19 19 18 17 16 15 15 15 15 15
23 24 24 24 24 24 24 24 24 24 23 22 22 22 22 22 22 22 21 21 21 20 20 19 19 18 18 18 18 16 16 16 14 13 13 13 13 14
22 22 22 22 22 22 22 22 22 22 21 21 21 21 21 21 21 20 19 19 19 19 18 17 17 16 16 16 15 14 14 13 12 11 11 12 13 13
21 21 21 21 21 20 20 21 21 20 19 18 19 19 19 19 19 18 18 17 17 16 15 15 14 13 14 14 12 12 11 10 9 10 10 12 12 12
20 20 20 19 19 19 18 18 17 16 16 16 16 17 17 17 17 16 15 15 14 13 12 11 11 10 10 10 9 9 8 8 8 10 11 11 12 14
Wind_Direction
269 271 273 274 275 278 279 281 282 283 285 287 290 292 293 296 298 299 299 300 300 301 303 304 304 305 305 304 304 304 304 303 303 303 301 302 301 301
269 271 273 273 275 277 279 280 282 284 286 288 291 293 294 296 297 299 300 301 301 303 304 304 304 305 306 305 304 303 303 304 304 303 302 302 301 301
271 273 275 276 277 277 278 280 282 286 288 290 292 294 295 296 297 299 300 301 303 304 304 304 305 306 305 305 304 303 303 303 304 303 302 302 302 302
272 275 276 278 277 277 278 280 282 286 289 291 293 295 296 296 298 299 301 302 304 305 305 305 306 306 306 306 305 304 303 304 304 304 304 304 304 304
272 275 275 276 277 277 279 281 283 285 288 291 293 295 297 297 298 300 302 303 305 306 306 307 307 306 306 306 305 305 305 305 305 305 305 305 306 306
272 273 275 276 276 278 280 282 283 285 288 290 293 294 296 297 300 301 303 305 306 307 308 309 308 307 307 308 307 307 308 308 307 307 307 308 308 307
273 274 276 276 276 277 279 280 282 285 288 290 292 294 295 296 299 301 303 306 307 308 309 309 309 308 308 309 309 310 310 310 310 310 310 309 309 309
273 273 274 273 274 276 279 280 283 285 287 290 292 293 295 298 300 303 306 306 307 308 309 310 310 310 311 311 312 312 312 312 312 312 312 312 312 311
271 273 273 274 274 276 277 280 283 285 287 289 291 293 296 298 300 304 306 307 308 310 310 311 312 313 314 314 314 314 314 314 314 314 314 315 315 316
271 272 272 273 274 276 279 281 283 285 286 288 290 293 295 297 299 303 305 307 308 309 310 312 314 315 317 317 316 317 318 318 318 318 318 318 318 318
271 272 273 273 274 277 278 279 281 284 286 288 290 294 297 299 301 303 305 307 308 309 311 312 314 316 317 317 318 319 321 323 323 322 321 320 320 320
270 271 272 273 275 277 278 279 282 283 286 288 291 294 297 300 302 304 306 307 307 309 312 315 316 317 318 318 318 319 322 325 326 325 325 324 324 323
269 271 273 274 275 276 278 280 281 283 285 287 290 293 296 299 301 302 304 305 306 309 314 317 318 319 320 321 320 321 323 324 325 326 328 328 327 327
269 271 273 275 276 277 279 280 281 284 286 288 290 292 295 298 300 301 303 304 305 310 313 316 316 317 320 322 324 324 325 325 325 327 329 329 329 330
269 271 273 274 275 276 278 279 282 284 285 288 290 291 294 297 299 301 302 303 305 309 312 312 312 315 319 322 324 325 326 326 327 328 330 330 331 333
268 270 271 272 274 276 277 279 281 282 284 286 288 290 294 297 300 301 301 301 304 308 310 311 311 314 317 320 323 325 327 328 329 331 333 333 334 337
268 269 270 270 273 275 277 278 280 282 283 283 286 288 291 296 299 300 300 301 303 305 307 309 310 313 316 319 322 324 326 329 332 335 337 338 341 344
269 269 268 269 271 273 275 277 280 281 281 282 284 286 291 295 299 300 300 301 303 304 306 308 309 311 315 320 322 323 325 329 332 335 337 341 346 350
269 269 269 269 270 271 274 276 279 280 280 280 283 287 291 296 299 301 301 301 301 303 305 308 309 310 313 318 322 323 327 332 334 335 337 341 348 353
270 269 268 269 270 272 274 276 277 279 279 279 283 287 291 296 299 300 300 301 301 301 303 307 308 310 313 318 323 326 329 334 336 337 340 346 353 358
270 267 266 267 270 272 275 277 278 278 277 279 281 285 289 294 298 299 300 301 301 300 301 303 306 309 314 320 324 328 333 338 341 345 349 355 1 6
268 265 265 267 270 271 274 277 279 277 278 279 281 285 288 293 296 298 299 301 302 301 302 303 304 308 316 322 326 333 340 346 350 355 359 3 11 18
265 263 265 268 269 269 273 277 277 276 277 278 281 284 288 293 296 298 299 302 304 303 304 306 307 312 321 327 335 343 350 358 2 5 10 18 25 29
Height
5698 5698 5699 5699 5699 5698 5698 5697 5697 5696 5695 5693 5690 5687 5683 5680 5676 5672 5668 5663 5658 5652 5647 5641 5635 5629 5623 5616 5610 5603 5597 5592 5586 5580 5575 5570 5565 5560
5688 5689 5689 5689 5689 5689 5688 5688 5687 5686 5685 5683 5681 5677 5674 5670 5666 5662 5657 5652 5647 5642 5636 5630 5624 5618 5612 5605 5599 5593 5587 5581 5575 5570 5565 5560 5555 5550
5678 5679 5679 5679 5679 5679 5678 5678 5677 5676 5675 5673 5670 5667 5664 5660 5656 5652 5647 5642 5637 5631 5626 5620 5613 5607 5601 5594 5588 5582 5576 5571 5565 5560 5554 5549 5544 5539
5669 5669 5670 5670 5670 5670 5669 5669 5668 5667 5665 5664 5661 5658 5654 5650 5647 5642 5638 5632 5627 5621 5615 5609 5603 5596 5590 5584 5578 5572 5566 5560 5555 5549 5544 5539 5533 5528
5659 5660 5660 5660 5660 5660 5660 5659 5658 5657 5656 5654 5651 5648 5645 5641 5637 5633 5628 5622 5617 5611 5605 5599 5592 5586 5579 5573 5567 5561 5556 5550 5545 5539 5533 5528 5523 5518
5650 5650 5651 5651 5651 5650 5650 5650 5649 5648 5646 5644 5642 5639 5636 5632 5628 5624 5619 5614 5608 5602 5595 5589 5582 5575 5569 5563 5558 5552 5546 5540 5534 5529 5524 5519 5514 5508
5640 5641 5641 5641 5641 5641 5640 5640 5639 5638 5636 5634 5632 5629 5626 5623 5619 5615 5610 5605 5599 5593 5586 5580 5573 5567 5560 5554 5548 5542 5537 5531 5526 5520 5515 5510 5505 5500
5631 5631 5631 5631 5631 5631 5631 5630 5629 5628 5626 5624 5622 5620 5616 5613 5609 5605 5600 5596 5591 5585 5578 5571 5564 5558 5552 5546 5540 5534 5529 5523 5518 5512 5507 5502 5497 5492
5622 5622 5622 5622 5622 5621 5621 5620 5619 5618 5617 5615 5612 5609 5607 5604 5600 5596 5590 5585 5580 5574 5569 5564 5557 5551 5544 5538 5533 5527 5522 5516 5511 5506 5500 5495 5491 5486
5612 5612 5612 5612 5612 5612 5611 5610 5609 5608 5607 5605 5603 5600 5597 5593 5590 5586 5581 5576 5571 5566 5561 5557 5551 5544 5538 5532 5527 5521 5516 5510 5505 5500 5495 5490 5485 5481
5602 5602 5603 5603 5602 5602 5601 5601 5600 5598 5596 5594 5592 5590 5587 5583 5580 5576 5572 5568 5564 5559 5554 5550 5545 5540 5534 5528 5522 5516 5511 5505 5500 5495 5490 5485 5481 5476
5592 5592 5592 5593 5592 5592 5592 5591 5590 5589 5587 5585 5583 5580 5577 5574 5571 5567 5564 5560 5556 5552 5548 5543 5538 5533 5530 5524 5517 5512 5506 5501 5496 5491 5486 5481 5476 5472
5582 5583 5583 5583 5583 5583 5582 5581 5581 5579 5578 5576 5574 5572 5569 5566 5562 5559 5555 5552 5549 5545 5541 5537 5533 5527 5522 5519 5514 5508 5503 5498 5493 5488 5482 5477 5472 5468
5573 5573 5574 5574 5574 5573 5573 5572 5571 5570 5569 5568 5566 5564 5561 5558 5555 5552 5548 5545 5541 5538 5534 5531 5527 5523 5518 5514 5510 5505 5499 5494 5489 5485 5480 5475 5470 5465
5563 5564 5564 5564 5565 5564 5564 5563 5562 5561 5560 5559 5558 5556 5554 5551 5548 5545 5542 5539 5536 5532 5528 5525 5521 5517 5513 5509 5505 5501 5497 5492 5487 5482 5477 5472 5468 5463
5553 5554 5555 5555 5555 5555 5555 5554 5553 5553 5552 5552 5550 5549 5547 5544 5542 5539 5536 5533 5531 5527 5523 5519 5516 5512 5509 5505 5501 5497 5493 5488 5484 5479 5475 5471 5466 5461
5543 5544 5545 5546 5546 5546 5546 5546 5545 5545 5544 5544 5543 5541 5540 5538 5535 5532 5530 5527 5524 5522 5519 5515 5511 5508 5505 5501 5498 5494 5490 5486 5481 5477 5474 5470 5465 5460
5534 5535 5536 5537 5537 5538 5538 5538 5537 5537 5537 5536 5536 5535 5533 5531 5529 5526 5524 5521 5519 5516 5514 5511 5508 5505 5502 5498 5495 5491 5487 5484 5480 5476 5472 5468 5464 5460
5525 5526 5527 5528 5529 5530 5530 5530 5530 5530 5529 5529 5528 5528 5526 5524 5522 5520 5518 5516 5513 5511 5509 5506 5504 5501 5498 5496 5492 5488 5485 5481 5478 5475 5471 5467 5463 5459
5518 5519 5519 5520 5521 5522 5522 5522 5522 5522 5522 5522 5521 5521 5519 5518 5516 5514 5512 5510 5509 5506 5504 5502 5500 5497 5495 5492 5489 5486 5482 5479 5476 5474 5471 5467 5463 5459
5511 5512 5513 5513 5514 5514 5515 5515 5515 5515 5515 5515 5515 5514 5513 5512 5511 5509 5507 5505 5504 5502 5500 5498 5496 5494 5491 5489 5486 5483 5481 5478 5475 5473 5470 5467 5464 5461
5504 5505 5506 5507 5507 5508 5508 5508 5508 5508 5508 5508 5508 5508 5507 5506 5505 5504 5502 5501 5499 5497 5496 5494 5492 5491 5489 5487 5484 5482 5480 5477 5475 5472 5470 5467 5464 5461
5498 5499 5500 5500 5501 5501 5502 5502 5502 5502 5502 5502 5502 5502 5502 5501 5500 5499 5498 5496 5495 5493 5492 5491 5490 5488 5487 5485 5483 5481 5479 5477 5475 5473 5471 5467 5464 5461